CW4199 Weather Reports


Display with metric or nautical units.
time (UTC)temp
F
wind
direction
speed
MPH
gust
MPH
rain 1hr
in
rain 24hr
in
rain mn
in
humidity
%
barometer
mb
20260509014905 65 211 4.0 8.0 0.00 0.00 0.00 60 1010.9
20260509014404 66 206 6.0 10.0 0.00 0.00 0.00 59 1010.9
20260509013904 66 198 5.0 10.0 0.00 0.00 0.00 59 1010.9
20260509013404 66 195 6.0 10.0 0.00 0.00 0.00 59 1010.9
20260509012904 66 194 3.0 7.0 0.00 0.00 0.00 59 1010.9
20260509011904 67 201 3.0 8.0 0.00 0.00 0.00 58 1010.9
20260509011404 67 201 3.0 7.0 0.00 0.00 0.00 57 1010.9
20260509010904 67 205 4.0 6.0 0.00 0.00 0.00 57 1010.9
20260509005904 68 194 4.0 8.0 0.00 0.00 0.00 57 1011.0
20260509004905 68 206 5.0 9.0 0.00 0.00 0.00 55 1010.9
20260509004404 68 218 4.0 7.0 0.00 0.00 0.00 55 1010.9
20260509003904 69 188 5.0 12.0 0.00 0.00 0.00 55 1010.8
20260509002905 69 193 6.0 12.0 0.00 0.00 0.00 54 1010.7
20260509002404 70 199 3.0 12.0 0.00 0.00 0.00 53 1010.7
20260509001405 70 203 3.0 6.0 0.00 0.00 0.00 51 1010.5
20260509000405 71 210 4.0 7.0 0.00 0.00 0.00 49 1010.6
20260508235904 71 206 3.0 7.0 0.00 0.00 0.00 48 1010.6
20260508234904 71 196 5.0 8.0 0.00 0.00 0.00 47 1010.6
20260508234405 71 198 2.0 6.0 0.00 0.00 0.00 47 1010.7
20260508233905 71 218 5.0 9.0 0.00 0.00 0.00 46 1010.8
20260508233404 72 203 4.0 7.0 0.00 0.00 0.00 47 1010.9
20260508232904 72 219 3.0 9.0 0.00 0.00 0.00 46 1011.1
20260508232404 72 215 3.0 9.0 0.00 0.00 0.00 45 1011.1
20260508231905 72 224 4.0 10.0 0.00 0.00 0.00 45 1011.1
20260508231404 72 202 6.0 12.0 0.00 0.00 0.00 47 1011.1
20260508230904 73 187 5.0 10.0 0.00 0.00 0.00 47 1011.1
20260508225404 73 245 5.0 10.0 0.00 0.00 0.00 46 1011.2
20260508224904 73 226 5.0 9.0 0.00 0.00 0.00 45 1011.3
20260508223904 74 194 5.0 8.0 0.00 0.00 0.00 46 1011.3
20260508223404 74 182 5.0 9.0 0.00 0.00 0.00 45 1011.2
20260508222905 74 217 3.0 8.0 0.00 0.00 0.00 43 1011.3
20260508222404 74 213 6.0 17.0 0.00 0.00 0.00 44 1011.3
20260508221904 74 205 6.0 10.0 0.00 0.00 0.00 43 1011.3
20260508221405 74 187 5.0 13.0 0.00 0.00 0.00 44 1011.3
20260508220904 74 184 4.0 10.0 0.00 0.00 0.00 45 1011.3
20260508220404 74 198 5.0 12.0 0.00 0.00 0.00 45 1011.3
20260508215904 74 181 7.0 12.0 0.00 0.00 0.00 44 1011.4
20260508214904 75 195 5.0 12.0 0.00 0.00 0.00 44 1011.4
20260508214404 74 179 6.0 12.0 0.00 0.00 0.00 44 1011.3
20260508213904 74 205 7.0 10.0 0.00 0.00 0.00 43 1011.3
20260508213404 74 212 6.0 12.0 0.00 0.00 0.00 43 1011.3
20260508212904 75 198 9.0 13.0 0.00 0.00 0.00 44 1011.4
20260508212404 74 223 6.0 14.0 0.00 0.00 0.00 44 1011.3
20260508211404 74 198 6.0 12.0 0.00 0.00 0.00 43 1011.4
20260508210904 74 198 6.0 10.0 0.00 0.00 0.00 44 1011.4
20260508210405 75 202 6.0 10.0 0.00 0.00 0.00 44 1011.4
20260508205904 75 202 7.0 13.0 0.00 0.00 0.00 43 1011.5
20260508204905 75 155 4.0 8.0 0.00 0.00 0.00 47 1011.6
20260508204404 74 221 3.0 7.0 0.00 0.00 0.00 45 1011.6
20260508203404 74 80 1.0 7.0 0.00 0.00 0.00 45 1011.8
20260508202405 74 193 6.0 10.0 0.00 0.00 0.00 46 1011.8
20260508201905 74 132 4.0 8.0 0.00 0.00 0.00 46 1012.0
20260508201404 74 158 6.0 10.0 0.00 0.00 0.00 45 1012.0
20260508200904 74 217 2.0 6.0 0.00 0.00 0.00 44 1012.1
20260508200404 74 230 3.0 6.0 0.00 0.00 0.00 45 1012.2
20260508195905 74 183 5.0 10.0 0.00 0.00 0.00 45 1012.4
20260508195404 74 208 5.0 8.0 0.00 0.00 0.00 45 1012.5
20260508194904 74 198 7.0 12.0 0.00 0.00 0.00 44 1012.6
20260508194404 74 225 6.0 10.0 0.00 0.00 0.00 44 1012.7
20260508193904 73 223 1.0 3.0 0.00 0.00 0.00 47 1012.7
20260508193404 73 223 2.0 7.0 0.00 0.00 0.00 44 1012.9
20260508192904 74 262 3.0 13.0 0.00 0.00 0.00 45 1012.9
20260508191905 73 151 3.0 12.0 0.00 0.00 0.00 47 1013.0
20260508191404 72 159 6.0 12.0 0.00 0.00 0.00 46 1013.2
20260508190904 72 175 5.0 10.0 0.00 0.00 0.00 45 1013.4
20260508190404 72 195 3.0 8.0 0.00 0.00 0.00 44 1013.5
20260508185904 72 192 3.0 8.0 0.00 0.00 0.00 43 1013.5
20260508185404 72 161 5.0 12.0 0.00 0.00 0.00 46 1013.7
20260508184904 72 175 6.0 9.0 0.00 0.00 0.00 45 1013.7
20260508183904 72 156 6.0 10.0 0.00 0.00 0.00 46 1013.7
20260508183404 72 201 2.0 12.0 0.00 0.00 0.00 43 1013.9
20260508182904 72 262 3.0 8.0 0.00 0.00 0.00 44 1013.9
20260508182404 72 149 6.0 12.0 0.00 0.00 0.00 44 1014.1
20260508181904 72 188 3.0 8.0 0.00 0.00 0.00 49 1014.2
20260508181404 72 205 5.0 10.0 0.00 0.00 0.00 46 1014.2
20260508180904 71 239 3.0 9.0 0.00 0.00 0.00 49 1014.3
20260508180404 71 96 2.0 7.0 0.00 0.00 0.00 47 1014.5
20260508175904 71 224 5.0 8.0 0.00 0.00 0.00 45 1014.6
20260508175404 71 261 4.0 9.0 0.00 0.00 0.00 48 1014.6
20260508174404 70 152 7.0 12.0 0.00 0.00 0.00 47 1015.0
20260508173904 70 164 4.0 13.0 0.00 0.00 0.00 47 1015.1
20260508173404 70 175 7.0 12.0 0.00 0.00 0.00 45 1015.1
20260508172905 70 207 6.0 10.0 0.00 0.00 0.00 48 1015.2
20260508172404 70 212 5.0 12.0 0.00 0.00 0.00 46 1015.2
20260508171904 70 219 4.0 15.0 0.00 0.00 0.00 48 1015.3
20260508171404 69 139 6.0 10.0 0.00 0.00 0.00 46 1015.4
20260508170904 69 193 7.0 12.0 0.00 0.00 0.00 46 1015.6
20260508170405 69 191 7.0 12.0 0.00 0.00 0.00 43 1015.7
20260508165904 69 197 6.0 12.0 0.00 0.00 0.00 45 1015.8
20260508165404 69 184 5.0 12.0 0.00 0.00 0.00 47 1015.9
20260508164904 69 149 6.0 13.0 0.00 0.00 0.00 45 1015.9
20260508164404 69 182 4.0 9.0 0.00 0.00 0.00 45 1015.9
20260508163904 69 140 5.0 12.0 0.00 0.00 0.00 48 1016.0
20260508162904 68 178 4.0 8.0 0.00 0.00 0.00 46 1016.1
20260508161904 68 148 5.0 13.0 0.00 0.00 0.00 48 1016.4
20260508155904 67 173 5.0 9.0 0.00 0.00 0.00 50 1016.6
20260508155404 67 225 4.0 9.0 0.00 0.00 0.00 48 1016.7
20260508154904 67 178 6.0 10.0 0.00 0.00 0.00 52 1016.7
20260508154404 66 200 6.0 12.0 0.00 0.00 0.00 53 1016.8
20260508153904 66 182 5.0 8.0 0.00 0.00 0.00 53 1016.7
20260508153404 66 202 4.0 10.0 0.00 0.00 0.00 53 1016.7
20260508152904 66 203 6.0 10.0 0.00 0.00 0.00 53 1016.8
20260508152405 66 241 5.0 8.0 0.00 0.00 0.00 52 1016.8
20260508150904 65 180 5.0 12.0 0.00 0.00 0.00 54 1017.0
20260508150404 65 184 5.0 12.0 0.00 0.00 0.00 55 1017.1
20260508145904 64 207 6.0 9.0 0.00 0.00 0.00 54 1017.1
20260508145404 64 215 6.0 12.0 0.00 0.00 0.00 56 1017.0
20260508144904 64 200 6.0 12.0 0.00 0.00 0.00 55 1017.1
20260508144404 64 193 5.0 10.0 0.00 0.00 0.00 59 1017.0
20260508143904 63 201 4.0 8.0 0.00 0.00 0.00 58 1017.1
20260508143404 64 196 4.0 8.0 0.00 0.00 0.00 58 1017.1
20260508142904 63 195 5.0 9.0 0.00 0.00 0.00 58 1017.3
20260508142404 63 195 5.0 12.0 0.00 0.00 0.00 60 1017.3
20260508141904 62 183 5.0 13.0 0.00 0.00 0.00 59 1017.4
20260508140404 61 171 5.0 14.0 0.00 0.00 0.00 61 1017.4
20260508135904 61 175 3.0 14.0 0.00 0.00 0.00 61 1017.5
20260508135404 60 161 5.0 10.0 0.00 0.00 0.00 63 1017.5
20260508134904 60 198 4.0 10.0 0.00 0.00 0.00 65 1017.6
20260508134404 60 194 3.0 12.0 0.00 0.00 0.00 67 1017.7
20260508133904 59 161 3.0 6.0 0.00 0.00 0.00 68 1017.8
20260508133404 58 170 5.0 8.0 0.00 0.00 0.00 67 1017.8
20260508132904 58 172 5.0 12.0 0.00 0.00 0.00 68 1017.8
20260508132404 58 170 3.0 10.0 0.00 0.00 0.00 69 1017.7
20260508131904 57 114 4.0 8.0 0.00 0.00 0.00 69 1017.7
20260508130904 56 141 5.0 9.0 0.00 0.00 0.00 70 1017.7
20260508130404 56 142 5.0 8.0 0.00 0.00 0.00 71 1017.6
20260508125904 55 181 4.0 10.0 0.00 0.00 0.00 71 1017.7
20260508125404 55 137 5.0 10.0 0.00 0.00 0.00 72 1017.7
20260508124904 54 150 2.0 7.0 0.00 0.00 0.00 75 1017.7
20260508124404 54 155 3.0 9.0 0.00 0.00 0.00 76 1017.7
20260508123904 53 162 3.0 5.0 0.00 0.00 0.00 77 1017.7
20260508123404 53 148 2.0 3.0 0.00 0.00 0.00 78 1017.7
20260508122903 52 115 2.0 3.0 0.00 0.00 0.00 80 1017.8
20260508122404 51 124 2.0 3.0 0.00 0.00 0.00 81 1017.7
20260508121904 50 125 2.0 3.0 0.00 0.00 0.00 83 1017.6
20260508121404 50 124 1.0 3.0 0.00 0.00 0.00 85 1017.6
20260508120904 49 124 1.0 2.0 0.00 0.00 0.00 87 1017.6
20260508120404 48 124 2.0 3.0 0.00 0.00 0.00 88 1017.5
20260508115904 47 123 1.0 2.0 0.00 0.00 0.00 89 1017.4
20260508115404 46 110 1.0 2.0 0.00 0.00 0.00 89 1017.3
20260508114404 46 110 0.0 1.0 0.00 0.00 0.00 90 1017.2
20260508113904 45 178 0.0 1.0 0.00 0.00 0.00 90 1017.2
20260508113404 45 178 0.0 1.0 0.00 0.00 0.00 91 1017.1
20260508112904 44 218 1.0 2.0 0.00 0.00 0.00 91 1017.0
20260508111903 43 211 2.0 3.0 0.00 0.00 0.00 91 1016.8
20260508111404 43 126 1.0 2.0 0.00 0.00 0.00 92 1016.9
20260508110405 42 55 1.0 2.0 0.00 0.00 0.00 91 1016.9
20260508105404 42 71 1.0 2.0 0.00 0.00 0.00 92 1016.7
20260508104904 42 71 1.0 2.0 0.00 0.00 0.00 91 1016.8
20260508104404 41 71 1.0 1.0 0.00 0.00 0.00 91 1016.9
20260508103903 41 71 0.0 0.0 0.00 0.00 0.00 91 1016.9
20260508103404 42 71 0.0 0.0 0.00 0.00 0.00 91 1016.9
20260508102904 42 71 0.0 1.0 0.00 0.00 0.00 91 1016.8
20260508102404 42 71 0.0 1.0 0.00 0.00 0.00 91 1016.9
20260508101904 42 71 0.0 1.0 0.00 0.00 0.00 91 1016.8
20260508101404 42 71 0.0 0.0 0.00 0.00 0.00 91 1016.7
20260508100404 42 71 0.0 0.0 0.00 0.00 0.00 91 1016.6
20260508095904 42 71 0.0 1.0 0.00 0.00 0.00 91 1016.6
20260508095404 42 71 0.0 1.0 0.00 0.00 0.00 91 1016.7
20260508094903 43 71 0.0 0.0 0.00 0.00 0.00 91 1016.7
20260508093904 43 71 0.0 1.0 0.00 0.00 0.00 91 1016.6
20260508093404 43 71 0.0 2.0 0.00 0.00 0.00 91 1016.5
20260508092904 43 71 1.0 2.0 0.00 0.00 0.00 91 1016.6
20260508092404 43 71 1.0 2.0 0.00 0.00 0.00 91 1016.5
20260508091904 43 71 1.0 2.0 0.00 0.00 0.00 91 1016.5
20260508091404 43 71 1.0 3.0 0.00 0.00 0.00 91 1016.4
20260508090904 43 71 0.0 2.0 0.00 0.00 0.00 91 1016.4
20260508090405 43 71 1.0 2.0 0.00 0.00 0.00 91 1016.4
20260508085904 43 71 1.0 2.0 0.00 0.00 0.00 91 1016.3
20260508085404 43 71 1.0 2.0 0.00 0.00 0.00 91 1016.3
20260508084404 43 71 0.0 1.0 0.00 0.00 0.00 91 1016.4
20260508082903 44 71 1.0 2.0 0.00 0.00 0.00 91 1016.4
20260508082404 44 71 0.0 0.0 0.00 0.00 0.00 91 1016.4
20260508081904 44 71 1.0 3.0 0.00 0.00 0.00 91 1016.5
20260508081404 44 354 1.0 2.0 0.00 0.00 0.00 91 1016.5
20260508080904 44 350 0.0 0.0 0.00 0.00 0.00 91 1016.5
20260508080403 44 350 0.0 0.0 0.00 0.00 0.00 91 1016.5
20260508075903 44 350 0.0 0.0 0.00 0.00 0.00 91 1016.6
20260508075405 44 350 0.0 0.0 0.00 0.00 0.00 91 1016.6
20260508074903 44 350 0.0 0.0 0.00 0.00 0.00 91 1016.5
20260508074404 45 350 0.0 0.0 0.00 0.00 0.00 91 1016.5
20260508073904 45 355 0.0 0.0 0.00 0.00 0.00 91 1016.6
20260508072904 45 355 0.0 0.0 0.00 0.00 0.00 91 1016.7
20260508072404 45 355 0.0 0.0 0.00 0.00 0.00 91 1016.7
20260508071904 45 355 0.0 0.0 0.00 0.00 0.00 91 1016.6
20260508071404 45 355 0.0 0.0 0.00 0.00 0.00 91 1016.8
20260508070904 45 355 0.0 0.0 0.00 0.00 0.00 91 1016.9
20260508070404 46 355 0.0 0.0 0.00 0.00 0.00 91 1017.0
20260508065904 46 355 0.0 0.0 0.00 0.00 0.00 91 1017.0
20260508065404 45 355 0.0 1.0 0.00 0.00 0.00 91 1017.1
20260508064904 45 355 0.0 0.0 0.00 0.00 0.00 91 1017.1
20260508064404 45 355 0.0 0.0 0.00 0.00 0.00 91 1017.1
20260508063404 46 355 0.0 1.0 0.00 0.00 0.00 91 1017.2
20260508062904 46 355 0.0 1.0 0.00 0.00 0.00 90 1017.2
20260508062404 46 355 0.0 0.0 0.00 0.00 0.00 90 1017.3
20260508061903 46 355 0.0 0.0 0.00 0.00 0.00 90 1017.2
20260508060404 46 355 0.0 0.0 0.00 0.00 0.00 90 1017.3
20260508055904 46 355 0.0 0.0 0.00 0.00 0.00 90 1017.3
20260508055404 47 355 0.0 1.0 0.00 0.00 0.00 90 1017.4
20260508054904 47 355 0.0 2.0 0.00 0.00 0.00 90 1017.3
20260508053904 47 355 0.0 0.0 0.00 0.00 0.00 90 1017.2
20260508053404 47 355 0.0 0.0 0.00 0.00 0.00 90 1017.3
20260508052904 47 355 0.0 0.0 0.00 0.00 0.00 89 1017.2
20260508052404 47 355 0.0 0.0 0.00 0.00 0.00 89 1017.1
20260508051904 47 355 0.0 0.0 0.00 0.00 0.00 89 1017.4
20260508051404 47 355 0.0 1.0 0.00 0.00 0.00 89 1017.4
20260508050404 47 355 1.0 2.0 0.00 0.00 0.00 89 1017.3
20260508045904 47 355 0.0 0.0 0.00 0.00 0.00 89 1017.2
20260508045404 48 355 0.0 1.0 0.00 0.00 0.00 89 1017.2
20260508044904 48 355 0.0 0.0 0.00 0.00 0.00 89 1017.2
20260508044404 48 355 0.0 0.0 0.00 0.00 0.00 88 1017.3
20260508043904 48 355 0.0 0.0 0.00 0.00 0.00 89 1017.4
20260508043404 48 355 0.0 1.0 0.00 0.00 0.00 88 1017.3
20260508042904 48 355 0.0 0.0 0.00 0.00 0.00 88 1017.2
20260508042404 48 355 0.0 0.0 0.00 0.00 0.00 88 1017.2
20260508041904 48 355 0.0 0.0 0.00 0.00 0.00 87 1017.2
20260508041404 48 355 0.0 0.0 0.00 0.00 0.00 87 1017.1
20260508040904 49 355 0.0 0.0 0.00 0.00 0.00 87 1017.2
20260508040404 49 355 0.0 0.0 0.00 0.00 0.00 87 1017.1
20260508035904 49 355 0.0 1.0 0.00 0.00 0.00 86 1017.2
20260508035404 49 355 0.0 1.0 0.00 0.00 0.00 86 1017.4
20260508034904 49 355 0.0 0.0 0.00 0.00 0.00 86 1017.4
20260508034404 49 355 0.0 0.0 0.00 0.00 0.00 85 1017.5
20260508033904 49 355 0.0 1.0 0.00 0.00 0.00 85 1017.6
20260508032404 50 355 1.0 2.0 0.00 0.00 0.00 84 1017.6
20260508031903 50 355 0.0 0.0 0.00 0.00 0.00 83 1017.6
20260508031404 50 355 0.0 0.0 0.00 0.00 0.00 83 1017.6
20260508030903 51 355 0.0 0.0 0.00 0.00 0.00 82 1017.6
20260508030403 51 355 0.0 0.0 0.00 0.00 0.00 82 1017.6
20260508025904 51 355 0.0 0.0 0.00 0.00 0.00 82 1017.4
20260508025404 51 355 0.0 0.0 0.00 0.00 0.00 81 1017.5
20260508024403 51 355 0.0 0.0 0.00 0.00 0.00 80 1017.4
20260508023904 52 355 0.0 0.0 0.00 0.00 0.00 80 1017.3
20260508023404 52 355 0.0 0.0 0.00 0.00 0.00 79 1017.3
20260508022904 52 355 0.0 0.0 0.00 0.00 0.00 79 1017.2
20260508022404 52 355 0.0 1.0 0.00 0.00 0.00 78 1017.1
20260508021904 53 355 0.0 0.0 0.00 0.00 0.00 76 1017.0
20260508021403 53 355 0.0 0.0 0.00 0.00 0.00 75 1016.9
20260508020903 54 355 0.0 1.0 0.00 0.00 0.00 74 1016.8
20260508020403 54 355 0.0 1.0 0.00 0.00 0.00 74 1016.6
20260508015904 54 355 1.0 1.0 0.00 0.00 0.00 73 1016.6
20260508015403 54 355 1.0 1.0 0.00 0.00 0.00 73 1016.5